This is the latest recevied weather packets stored in our database for station/object K1PM-WX. If no packets are shown the sender has not sent any weather packets the latest 1 day(s).
| Time | Temp. | Humidity | Pressure | Rain* | Wind** | Luminosity | Snow |
|---|---|---|---|---|---|---|---|
| 1778012337 | 13.33° C | 90% | 1029 hPa | 0 mm | 5.36 m/s, 248° | - | - |
| 1778012036 | 12.78° C | 89% | 1030 hPa | 0 mm | 3.58 m/s, 225° | - | - |
| 1778011736 | 13.33° C | 87% | 1029 hPa | 0 mm | 3.58 m/s, 248° | - | - |
| 1778011436 | 13.33° C | 86% | 1030 hPa | 0 mm | 4.02 m/s, 225° | - | - |
| 1778011137 | 13.33° C | 85% | 1029 hPa | 0 mm | 4.47 m/s, 248° | - | - |
| 1778010836 | 13.89° C | 83% | 1029 hPa | 0 mm | 4.92 m/s, 225° | - | - |
| 1778010538 | 13.89° C | 83% | 1029 hPa | 0 mm | 4.92 m/s, 225° | - | - |
| 1778010237 | 13.89° C | 82% | 1029 hPa | 0 mm | 6.26 m/s, 203° | - | - |
| 1778009937 | 13.89° C | 81% | 1029 hPa | 0 mm | 6.71 m/s, 248° | - | - |
| 1778009637 | 14.44° C | 79% | 1029 hPa | 0 mm | 7.6 m/s, 225° | - | - |
| 1778009336 | 15° C | 78% | 1029 hPa | 0 mm | 4.02 m/s, 225° | - | - |
| 1778009036 | 15° C | 78% | 1029 hPa | 0 mm | 2.68 m/s, 203° | - | - |
| 1778008737 | 15.56° C | 77% | 1029 hPa | 0 mm | 4.47 m/s, 203° | - | - |
| 1778008436 | 15.56° C | 77% | 1029 hPa | 0 mm | 3.58 m/s, 270° | - | - |
| 1778008136 | 15.56° C | 76% | 1029 hPa | 0 mm | 6.26 m/s, 248° | - | - |
| 1778007836 | 15.56° C | 75% | 1029 hPa | 0 mm | 6.71 m/s, 248° | - | - |
| 1778007536 | 16.11° C | 72% | 1029 hPa | 0 mm | 5.36 m/s, 225° | - | - |
| 1778007236 | 17.78° C | 70% | 1029 hPa | 0 mm | 6.26 m/s, 248° | - | - |
| 1778006936 | 18.33° C | 68% | 1029 hPa | 0 mm | 5.81 m/s, 203° | - | - |
| 1778006636 | 19.44° C | 66% | 1028 hPa | 0 mm | 3.13 m/s, 248° | - | - |
| 1778006336 | 19.44° C | 66% | 1028 hPa | 0 mm | 6.71 m/s, 248° | - | - |
| 1778006036 | 19.44° C | 66% | 1028 hPa | 0 mm | 7.6 m/s, 248° | - | - |
| 1778005737 | 19.44° C | 67% | 1028 hPa | 0 mm | 6.26 m/s, 270° | - | - |
| 1778005436 | 19.44° C | 67% | 1028 hPa | 0 mm | 4.02 m/s, 338° | - | - |
| 1778005136 | 19.44° C | 67% | 1028 hPa | 0 mm | 7.15 m/s, 225° | - | - |
* Rain latest hour (hover to see other rain measurements)
** Current wind speed in m/s (hover to see current wind gust speed)